Tracking 29892 objects as of 21-Nov-2024
HD Live streaming from Space Station
objects crossing your sky now

CZ-6A DEB

Track CZ-6A DEB now!
10-day predictions


NORAD ID: 54278
Int'l Code: 2022-151V
Perigee: 732.4 km
Apogee: 915.5 km
Inclination: 98.6 °
Period: 101.2 minutes
Semi major axis: 7194 km
RCS: Unknown
Launch date: November 11, 2022
Source: People's Republic of China (PRC)
Launch site: Taiyaun Space Center, China (TSC)

Note: This is SATELLITE DEBRIS
Your satellite tracking list
Your tracking list is empty




NASA's NSSDC Master Catalog

Two Line Element Set (TLE):
1 54278U 22151V   24324.96234419  .00013228  00000-0  54643-2 0  9990
2 54278  98.6387 314.8315 0127241  41.9960 319.0890 14.22523001103947
Source of the keplerian elements: AFSPC